Tracking 18957 objects as of 22-Jan-2018
HD Live streaming from Space Station
objects crossing your sky now

FENGYUN 1C DEB

Track FENGYUN 1C DEB now!
10-day predictions


NORAD ID: 31097
Int'l Code: 1999-025BGT
Perigee: 825.5 km
Apogee: 850.8 km
Inclination: 98.9 °
Period: 101.5 minutes
Semi major axis: 7209 km
RCS: 0.0109 m2 (small)
Launch date: May 10, 1999
Source: People's Republic of China (PRC)
Launch site: Taiyaun Space Center, China (TSC)

Note: This is SATELLITE DEBRIS
aabbcc
Your satellite tracking list
Your tracking list is empty




NASA's NSSDC Master Catalog

Two Line Element Set (TLE):
1 31097U 99025BGT 18021.64045308 +.00000755 +00000-0 +38778-3 0  9990
2 31097 098.9414 072.8837 0017558 327.2760 186.3029 14.18319411559949
Source of the keplerian elements: AFSPC